Regional Weather Roundup
Issued by NWS

Home | Current Version | Previous Version | Graphics & Text | Print | Product List | Glossary On
Versions: 1 2 3 4 5 6 7 8 9 10 11 12 13 14 15 16 17 18 19 20 21 22 23 24 25 26 27 28 29 30 31 32 33 34 35 36 37 38 39 40 41 42 43 44 45 46 47 48 49 50
000
ASUS43 KFSD 292002
RWRSD

WEATHER ROUNDUP FOR SOUTH DAKOTA
NATIONAL WEATHER SERVICE SIOUX FALLS SD
300 PM CDT SAT AUG 29 2015

NOTE: "FAIR" INDICATES FEW OR NO CLOUDS BELOW 12,000 FEET WITH NO
SIGNIFICANT WEATHER AND/OR OBSTRUCTIONS TO VISIBILITY.


SDZ001>005-009-010-012>017-292100-
NORTHWEST AND NORTH CENTRAL SOUTH DAKOTA

CITY           SKY/WX    TMP DP  RH WIND       PRES   REMARKS
FAITH            N/A     92  52  25 S12       29.95
MOBRIDGE       SUNNY     89  63  41 SE10      29.90F HAZE
$$

SDZ012>016-024>037-041>051-057-063-072>074-292100-
SOUTHWEST AND SOUTH CENTRAL SOUTH DAKOTA

CITY           SKY/WX    TMP DP  RH WIND       PRES   REMARKS
RAPID CTY ARPT SUNNY     93  51  23 S13       29.99F
PIERRE         SUNNY     92  63  38 S13       29.92F
CUSTER         SUNNY     84  39  20 SW10G17   30.18F
ELLSWORTH AFB  SUNNY     94  51  22 S14       29.98F
PHILIP         SUNNY     94  55  26 SW12      29.94F
PINE RIDGE     SUNNY     94  44  17 S13       30.04F
WINNER         FAIR      89  64  43 S8        29.99F
$$

SDZ004>011-016>023-039-040-292100-
NORTHEAST SOUTH DAKOTA

CITY           SKY/WX    TMP DP  RH WIND       PRES   REMARKS
ABERDEEN       SUNNY     83  70  64 S10       29.94F
WATERTOWN      MOSUNNY   77  65  66 S9        29.99F
BROOKINGS      MOSUNNY   75  63  64 S10       30.03F
$$

SDZ017-020-022-023-036>040-048>070-292100-
SOUTHEAST SOUTH DAKOTA

CITY           SKY/WX    TMP DP  RH WIND       PRES   REMARKS
SIOUX FALLS    CLOUDY    71  62  73 S7        30.04F
HURON          SUNNY     83  69  62 S14       29.95F
CHAMBERLAIN    SUNNY     83  69  62 S8        29.98F
MITCHELL       SUNNY     80  69  69 S12G17    29.99F
YANKTON        MOSUNNY   73  64  73 E7        30.03F
$$

ABBREVIATIONS USED IN REMARKS
   TC - TEMPERATURE IN CELSIUS
  WCI - WIND CHILL INDEX
   HX - HEAT INDEX
  VSB - VISIBILITY




USA.gov is the U.S. government's official web portal to all federal, state and local government web resources and services.